Weather History for NW Arkansas Airport, AR

Change the Weather History Date:

Monday, November 5, 2012

  Actual Average Record
Temperature  
Mean Temperature 52 °F -  
Max Temperature 59 °F - - ()
Min Temperature 44 °F - - ()
Degree Days  
Heating Degree Days 14    
Growing Degree Days 2 (Base 50)    
Moisture  
Dew Point 43 °F    
Average Humidity 78    
Maximum Humidity 93    
Minimum Humidity 58    
Precipitation  
Precipitation 0.00 in - - ()
Sea Level Pressure  
Sea Level Pressure 30.03 in    
Wind  
Wind Speed 8 mph (WNW)    
Max Wind Speed 16 mph    
Max Gust Speed 24 mph    
Visibility 10 miles    
Events Rain    
T = Trace of Precipitation, MM = Missing Value Source: NWS Daily Summary

Daily Weather History Graph

Daily Weather History Graph

Search for Another Location

Airport:

Trip Planner

Search our weather history database for the weather conditions in past years. The results will help you decide how hot, cold, wet, or windy it might be!

Date:

Astronomy

Nov. 05, 2012 Rise Set
Actual Time 6:44 AM CST 5:16 PM CST
Civil Twilight 6:17 AM CST 5:43 PM CST
Nautical Twilight 5:47 AM CST 6:13 PM CST
Astronomical Twilight 5:17 AM CST 6:44 PM CST
Moon 10:54 PM CST (11/5) 12:04 PM CST (11/5)
Length of Visible Light 11h 25m
Length of Day
10h 31m
Waning Gibbous, 62% of the Moon is Illuminated
Nov 5
Waning Gibbous
Nov 6
Last Quarter
Nov 13
New
Nov 20
First Quarter
Nov 28
Full

Hourly Weather History & Observations

Time (CST) Temp. Windchill Dew Point Humidity Pressure Visibility Wind Dir Wind Speed Gust Speed Precip Events Conditions
12:53 AM 48.9 °F - 41.0 °F 74% 30.06 in 10.0 mi South 4.6 mph - N/A   Clear
1:53 AM 51.1 °F - 42.1 °F 71% 30.06 in 10.0 mi South 3.5 mph - N/A   Scattered Clouds
2:53 AM 50.0 °F - 43.0 °F 77% 30.05 in 10.0 mi SSW 3.5 mph - N/A   Scattered Clouds
3:53 AM 51.1 °F - 43.0 °F 74% 30.01 in 10.0 mi South 10.4 mph - N/A   Overcast
4:53 AM 51.1 °F - 44.1 °F 77% 30.00 in 10.0 mi SSW 6.9 mph - N/A   Mostly Cloudy
5:53 AM 50.0 °F - 44.1 °F 80% 30.00 in 10.0 mi WSW 5.8 mph - N/A   Mostly Cloudy
6:39 AM 50.0 °F - 46.4 °F 87% 30.00 in 10.0 mi SW 9.2 mph - 0.00 in   Overcast
6:53 AM 50.0 °F - 45.0 °F 83% 29.99 in 10.0 mi SW 9.2 mph - 0.00 in   Overcast
7:10 AM 50.0 °F - 44.6 °F 82% 30.01 in 10.0 mi SW 9.2 mph - N/A   Mostly Cloudy
7:53 AM 51.1 °F - 46.0 °F 83% 30.00 in 10.0 mi SW 9.2 mph - 0.00 in Rain Light Rain
8:53 AM 53.1 °F - 46.9 °F 80% 30.00 in 10.0 mi WSW 13.8 mph - 0.00 in   Clear
9:53 AM 55.9 °F - 46.0 °F 69% 30.00 in 10.0 mi West 11.5 mph - N/A   Clear
10:53 AM 59.0 °F - 44.1 °F 58% 30.00 in 10.0 mi NNW 12.7 mph 19.6 mph N/A   Clear
11:53 AM 57.9 °F - 43.0 °F 58% 30.00 in 10.0 mi WNW 16.1 mph 23.0 mph N/A   Partly Cloudy
12:53 PM 54.0 °F - 43.0 °F 66% 29.99 in 10.0 mi NNW 16.1 mph 21.9 mph N/A   Overcast
1:31 PM 53.6 °F - 42.8 °F 67% 30.00 in 10.0 mi NW 13.8 mph - N/A   Overcast
1:53 PM 52.0 °F - 43.0 °F 71% 30.00 in 10.0 mi NW 13.8 mph - N/A   Overcast
2:53 PM 51.1 °F - 43.0 °F 74% 30.01 in 10.0 mi NNW 15.0 mph 21.9 mph N/A   Overcast
3:53 PM 48.9 °F - 42.1 °F 77% 30.02 in 10.0 mi NW 10.4 mph 24.2 mph N/A   Overcast
4:53 PM 48.0 °F - 42.1 °F 80% 30.03 in 10.0 mi NW 8.1 mph - N/A   Overcast
5:53 PM 48.0 °F - 41.0 °F 77% 30.05 in 10.0 mi NNW 12.7 mph 20.7 mph N/A   Overcast
6:53 PM 46.9 °F - 41.0 °F 80% 30.08 in 10.0 mi NNW 11.5 mph - N/A   Overcast
7:53 PM 46.0 °F 41.4 °F 39.9 °F 79% 30.07 in 10.0 mi NNW 9.2 mph - N/A   Overcast
8:53 PM 46.0 °F 41.9 °F 39.9 °F 79% 30.07 in 10.0 mi North 8.1 mph - N/A   Overcast
9:39 PM 44.6 °F 40.7 °F 41.0 °F 87% 30.08 in 10.0 mi NW 6.9 mph - N/A   Overcast
9:53 PM 45.0 °F 40.1 °F 41.0 °F 86% 30.07 in 10.0 mi NNW 9.2 mph - N/A   Overcast
10:36 PM 44.6 °F 40.7 °F 42.8 °F 93% 30.07 in 10.0 mi NNW 6.9 mph - N/A   Overcast
10:53 PM 44.1 °F 40.1 °F 42.1 °F 93% 30.06 in 10.0 mi NW 6.9 mph - N/A   Overcast
11:53 PM 44.1 °F 41.5 °F 42.1 °F 93% 30.08 in 9.0 mi NW 4.6 mph - N/A   Overcast